Content
SEND FEEDBACK

Daily
Averages
Monthly
Summary
United States of America

INARAJAN, GUAM


Home > North America > United States > Guam
Elevation: 85 meters     Latitude: 13 18N     Longitude: 144 44E

WEATHER
 
SELECT A DAY
Number of Records: 352,517;   Date Range: 1/1/95 - 10/30/14
 
SHARE

PRINT THIS DATA

[ ← Previous Day ]
WEATHER ALMANAC - 10 APRIL, 2014
[ Next Day → ]
[ °F ]   °C
Weather ElementAverageHighLow
Temperature27 °C29 °C (10:08 am)25.8 °C (4:58 am)
Dewpoint23.2 °C24.1 °C (9:58 pm)22 °C (12:33 am)
Humidity79.7 %89 % (8:33 pm)70 % (10:08 am)
Barometer1011.2 hPa1012.9 hPa (8:28 am)1008.1 hPa (3:58 pm)
Wind Speed19.3 km/h25.9 km/h (12:58 pm)
Wind Gust29.6 km/h (12:08 pm)
Weather ElementAverage
Visibility16.1 km
Wind DirectionENE (71 °)

Weather ElementTotal
Precipitation---
Cooling Degree Days9.1 (Base 18.3)
Growing Degree Days17.4 (Base 10)
Averaged from 103 records on 10 April, 2014
WEATHER CONDITIONS BREAKOUT
WIND DIRECTION BREAKOUT
WEATHER BY HOUR - 10 APRIL, 2014
[ °F ]   °C
Local TimeTemperatureDewpointHumidityBarometerVisibilityWind DirectionWind SpeedGust SpeedPrecipitationEventsConditions
12:33 AM26 °C22 °C78 %1011.9 hPa16.1 kmENE (70°)18.5 km/hMostly Cloudy
12:43 AM26 °C22 °C78 %1011.9 hPa16.1 kmEast (80°)14.8 km/hMostly Cloudy
12:48 AM26 °C22 °C78 %1011.9 hPa16.1 kmEast (80°)14.8 km/hScattered Clouds
12:58 AM25.9 °C22.5 °C81 %1010.5 hPa16.1 kmENE (70°)18.5 km/h0 mmMostly Cloudy
1:03 AM26 °C22 °C78 %1011.5 hPa16.1 kmENE (70°)18.5 km/hMostly Cloudy
1:08 AM26 °C22 °C78 %1011.5 hPa16.1 kmENE (70°)20.4 km/hMostly Cloudy
1:18 AM26 °C22 °C78 %1011.5 hPa16.1 kmENE (70°)18.5 km/hScattered Clouds
1:23 AM26 °C23 °C83 %1011.5 hPa16.1 kmENE (70°)20.4 km/hMostly Cloudy
1:38 AM26 °C22 °C78 %1011.2 hPa16.1 kmENE (70°)18.5 km/hScattered Clouds
1:58 AM26 °C22 °C78 %1010.2 hPa16.1 kmENE (70°)18.5 km/hMostly Cloudy
2:28 AM26 °C22 °C78 %1011.2 hPa16.1 kmENE (70°)22.2 km/hOvercast
2:33 AM26 °C23 °C83 %1011.2 hPa16.1 kmENE (70°)16.7 km/hOvercast
2:43 AM26 °C23 °C83 %1010.8 hPa16.1 kmEast (80°)14.8 km/hOvercast
2:48 AM26 °C22 °C78 %1010.8 hPa16.1 kmEast (80°)20.4 km/hOvercast
2:53 AM26 °C22 °C78 %1010.8 hPa16.1 kmEast (80°)20.4 km/hOvercast
2:58 AM26 °C22.4 °C80 %1009.8 hPa16.1 kmEast (80°)18.5 km/hOvercast
3:08 AM26 °C22 °C78 %1010.8 hPa16.1 kmEast (80°)20.4 km/hOvercast
3:13 AM26 °C22 °C78 %1010.8 hPa16.1 kmEast (80°)24.1 km/hOvercast
3:28 AM26 °C22 °C78 %1010.8 hPa16.1 kmEast (90°)20.4 km/hOvercast
3:53 AM26 °C22 °C78 %1010.8 hPa16.1 kmEast (100°)18.5 km/hOvercast
3:58 AM26 °C22.2 °C79 %1009.5 hPa16.1 kmEast (80°)20.4 km/hOvercast
4:08 AM26 °C22 °C78 %1010.8 hPa16.1 kmEast (90°)20.4 km/hOvercast
4:23 AM26 °C22 °C78 %1010.8 hPa16.1 kmEast (80°)16.7 km/hOvercast
4:28 AM26 °C22 °C78 %1010.8 hPa16.1 kmENE (70°)18.5 km/hOvercast
4:38 AM26 °C22 °C78 %1010.8 hPa16.1 kmEast (80°)18.5 km/hOvercast
4:53 AM26 °C22 °C78 %1010.8 hPa16.1 kmEast (80°)18.5 km/hMostly Cloudy
4:58 AM25.8 °C22.3 °C81 %1009.8 hPa16.1 kmEast (80°)20.4 km/hMostly Cloudy
5:03 AM26 °C22 °C78 %1010.8 hPa16.1 kmEast (90°)16.7 km/hOvercast
5:28 AM26 °C22 °C78 %1011.2 hPa16.1 kmEast (80°)20.4 km/hOvercast
5:48 AM26 °C22 °C78 %1011.2 hPa16.1 kmEast (90°)22.2 km/hOvercast
5:58 AM26 °C22 °C78 %1010.2 hPa16.1 kmEast (90°)20.4 km/hMostly Cloudy
6:58 AM26.3 °C22.5 °C79 %1011.2 hPa16.1 kmEast (80°)20.4 km/hMostly Cloudy
7:08 AM27 °C23 °C79 %1011.9 hPa16.1 kmEast (80°)18.5 km/hMostly Cloudy
7:28 AM27 °C23 °C79 %1012.2 hPa16.1 kmEast (80°)14.8 km/hMostly Cloudy
7:38 AM27 °C23 °C79 %1012.5 hPa16.1 kmEast (80°)14.8 km/hMostly Cloudy
7:53 AM27 °C23 °C79 %1012.5 hPa16.1 kmEast (80°)20.4 km/hMostly Cloudy
7:58 AM27.1 °C22.9 °C78 %1011.9 hPa16.1 kmEast (90°)20.4 km/hMostly Cloudy
8:28 AM28 °C23 °C74 %1012.9 hPa16.1 kmEast (90°)20.4 km/hMostly Cloudy
8:33 AM28 °C23 °C74 %1012.9 hPa16.1 kmEast (100°)18.5 km/hMostly Cloudy
8:58 AM28 °C22.5 °C72 %1011.9 hPa16.1 kmEast (80°)20.4 km/hPartly Cloudy
9:58 AM28.6 °C23.2 °C72 %1011.9 hPa16.1 kmEast (80°)16.7 km/hScattered Clouds
10:08 AM29 °C23 °C70 %1012.9 hPa16.1 kmEast (90°)20.4 km/hMostly Cloudy
10:18 AM29 °C23 °C70 %1012.9 hPa16.1 kmEast (80°)20.4 km/hMostly Cloudy
10:23 AM29 °C23 °C70 %1012.5 hPa16.1 kmENE (60°)22.2 km/hMostly Cloudy
10:28 AM29 °C23 °C70 %1012.5 hPa16.1 kmENE (70°)20.4 km/hScattered Clouds
10:43 AM29 °C23 °C70 %1012.5 hPa16.1 kmENE (60°)22.2 km/hMostly Cloudy
10:48 AM29 °C23 °C70 %1012.5 hPa16.1 kmEast (80°)18.5 km/hScattered Clouds
10:58 AM29 °C23.6 °C72 %1011.5 hPa16.1 kmENE (60°)18.5 km/hScattered Clouds
11:08 AM29 °C24 °C74 %1012.2 hPa16.1 kmENE (70°)22.2 km/hScattered Clouds
11:33 AM29 °C24 °C74 %1012.2 hPa16.1 kmENE (60°)22.2 km/hMostly Cloudy
11:38 AM29 °C24 °C74 %1012.2 hPa16.1 kmENE (60°)20.4 km/hMostly Cloudy
11:43 AM29 °C24 °C74 %1012.2 hPa16.1 kmENE (60°)18.5 km/hScattered Clouds
11:58 AM28.9 °C23.7 °C73 %1011.2 hPa16.1 kmENE (70°)18.5 km/hMostly Cloudy
12:03 PM29 °C24 °C74 %1011.9 hPa16.1 kmENE (70°)20.4 km/hMostly Cloudy
12:08 PM29 °C23 °C70 %1011.9 hPa16.1 kmNE (50°)20.4 km/h29.6 km/hMostly Cloudy
12:18 PM29 °C24 °C74 %1011.9 hPa16.1 kmENE (70°)18.5 km/hMostly Cloudy
12:38 PM28 °C23 °C74 %1011.5 hPa16.1 kmENE (60°)20.4 km/hMostly Cloudy
12:43 PM29 °C24 °C74 %1011.2 hPa16.1 kmENE (60°)18.5 km/hMostly Cloudy
12:53 PM29 °C24 °C74 %1011.2 hPa16.1 kmENE (60°)24.1 km/hMostly Cloudy
12:58 PM28.5 °C23.7 °C75 %1010.2 hPa16.1 kmENE (70°)25.9 km/hMostly Cloudy
1:53 PM28 °C24 °C79 %1010.2 hPa16.1 kmNE (40°)20.4 km/hMostly Cloudy
1:58 PM28 °C23 °C74 %1009.5 hPa16.1 kmNE (50°)24.1 km/hMostly Cloudy
2:08 PM28 °C24 °C79 %1009.8 hPa16.1 kmNE (50°)20.4 km/hMostly Cloudy
2:58 PM28 °C24 °C79 %1008.5 hPa16.1 kmNE (50°)18.5 km/hMostly Cloudy
3:17 PM28 °C24 °C79 %1009.5 hPa16.1 kmENE (60°)16.7 km/hScattered Clouds
3:58 PM28.1 °C23.9 °C78 %1008.1 hPa16.1 kmNE (50°)24.1 km/hScattered Clouds
4:08 PM28 °C24 °C79 %1009.1 hPa16.1 kmNE (50°)22.2 km/hScattered Clouds
4:23 PM28 °C24 °C79 %1009.5 hPa16.1 kmENE (70°)20.4 km/hMostly Cloudy
4:33 PM28 °C24 °C79 %1009.5 hPa16.1 kmENE (60°)20.4 km/hMostly Cloudy
4:38 PM27 °C24 °C84 %1009.5 hPa16.1 kmENE (70°)20.4 km/hMostly Cloudy
4:43 PM27 °C24 °C84 %1009.5 hPa16.1 kmENE (70°)18.5 km/hMostly Cloudy
4:48 PM27 °C24 °C84 %1009.5 hPa16.1 kmENE (70°)22.2 km/hMostly Cloudy
4:53 PM27 °C24 °C84 %1009.5 hPa16.1 kmENE (70°)18.5 km/hScattered Clouds
4:58 PM27 °C23.8 °C83 %1008.8 hPa16.1 kmEast (80°)24.1 km/hMostly Cloudy
5:13 PM27 °C24 °C84 %1009.8 hPa16.1 kmENE (70°)16.7 km/hMostly Cloudy
5:18 PM27 °C23 °C79 %1009.8 hPa16.1 kmENE (70°)16.7 km/hMostly Cloudy
5:33 PM27 °C23 °C79 %1010.2 hPa16.1 kmENE (70°)20.4 km/hMostly Cloudy
5:38 PM27 °C23 °C79 %1010.2 hPa16.1 kmENE (70°)20.4 km/hScattered Clouds
5:58 PM26.8 °C23.5 °C82 %1009.5 hPa16.1 kmENE (70°)16.7 km/hScattered Clouds
6:58 PM26.2 °C23.4 °C84 %1009.8 hPa16.1 kmENE (60°)13 km/hPartly Cloudy
7:58 PM26.3 °C23.6 °C85 %1010.5 hPa16.1 kmENE (60°)20.4 km/hPartly Cloudy
8:33 PM26 °C24 °C89 %1011.5 hPa16.1 kmENE (60°)18.5 km/hMostly Cloudy
8:53 PM27 °C24 °C84 %1011.9 hPa16.1 kmENE (60°)20.4 km/hOvercast
8:58 PM26.5 °C23.9 °C86 %1011.2 hPa16.1 kmENE (60°)20.4 km/hOvercast
9:03 PM27 °C24 °C84 %1011.9 hPa16.1 kmENE (60°)22.2 km/hOvercast
9:08 PM27 °C24 °C84 %1011.9 hPa16.1 kmENE (60°)20.4 km/hOvercast
9:18 PM27 °C24 °C84 %1011.9 hPa16.1 kmENE (60°)18.5 km/hMostly Cloudy
9:23 PM26 °C24 °C89 %1012.2 hPa16.1 kmENE (70°)18.5 km/hMostly Cloudy
9:43 PM26 °C24 °C89 %1011.9 hPa16.1 kmENE (60°)16.7 km/hScattered Clouds
9:53 PM26 °C24 °C89 %1011.9 hPa16.1 kmENE (70°)18.5 km/hScattered Clouds
9:58 PM26.2 °C24.1 °C88 %1011.2 hPa16.1 kmENE (70°)14.8 km/hScattered Clouds
10:13 PM26 °C24 °C89 %1012.2 hPa16.1 kmENE (70°)16.7 km/hMostly Cloudy
10:23 PM26 °C24 °C89 %1012.2 hPa16.1 kmENE (70°)18.5 km/hScattered Clouds
10:28 PM26 °C24 °C89 %1012.2 hPa16.1 kmENE (70°)20.4 km/hMostly Cloudy
10:33 PM26 °C24 °C89 %1012.2 hPa16.1 kmEast (80°)18.5 km/hMostly Cloudy
10:38 PM26 °C24 °C89 %1012.2 hPa16.1 kmENE (70°)16.7 km/hMostly Cloudy
10:58 PM26.4 °C24 °C87 %1011.2 hPa16.1 kmENE (70°)16.7 km/hMostly Cloudy
11:03 PM26 °C24 °C89 %1012.2 hPa16.1 kmENE (70°)18.5 km/hMostly Cloudy
11:13 PM26 °C24 °C89 %1012.2 hPa16.1 kmENE (70°)18.5 km/hOvercast
11:28 PM26 °C24 °C89 %1011.9 hPa16.1 kmENE (60°)18.5 km/hOvercast
11:33 PM26 °C24 °C89 %1011.9 hPa16.1 kmENE (70°)16.7 km/hMostly Cloudy
11:53 PM26 °C24 °C89 %1011.9 hPa16.1 kmENE (70°)18.5 km/hMostly Cloudy
11:58 PM26.2 °C24.1 °C88 %1011.2 hPa16.1 kmENE (60°)16.7 km/hMostly Cloudy
Hourly data recorded from PGUA, located 0 kilometers away from Inarajan, Guam







STORIES FROM OUR PARTNERS